Year,Month,Day,Hour,Minute,Value (Times are PST for temperature in C)
2012,05,15,00,00,11.00
2012,05,15,00,01,11.00
2012,05,15,00,02,11.00
2012,05,15,00,03,11.00
2012,05,15,00,04,11.00
2012,05,15,00,05,10.90
2012,05,15,00,06,10.90
2012,05,15,00,07,10.90
2012,05,15,00,08,10.90
2012,05,15,00,09,10.90
2012,05,15,00,10,10.90
2012,05,15,00,11,10.90
2012,05,15,00,12,10.90
2012,05,15,00,13,10.90
2012,05,15,00,14,10.90
2012,05,15,00,15,10.90
2012,05,15,00,16,10.80
2012,05,15,00,17,10.90
2012,05,15,00,18,10.90
2012,05,15,00,19,10.90
2012,05,15,00,20,10.90
2012,05,15,00,21,10.80
2012,05,15,00,22,10.80
2012,05,15,00,23,10.80
2012,05,15,00,24,10.80
2012,05,15,00,25,10.70
2012,05,15,00,26,10.70
2012,05,15,00,27,10.70
2012,05,15,00,28,10.70
2012,05,15,00,29,10.70
2012,05,15,00,30,10.70
2012,05,15,00,31,10.70
2012,05,15,00,32,10.70
2012,05,15,00,33,10.60
2012,05,15,00,34,10.60
2012,05,15,00,35,10.60
2012,05,15,00,36,10.50
2012,05,15,00,37,10.60
2012,05,15,00,38,10.50
2012,05,15,00,39,10.50
2012,05,15,00,40,10.50
2012,05,15,00,41,10.40
2012,05,15,00,42,10.40
2012,05,15,00,43,10.40
2012,05,15,00,44,10.40
2012,05,15,00,45,10.40
2012,05,15,00,46,10.40
2012,05,15,00,47,10.40
2012,05,15,00,48,10.40
2012,05,15,00,49,10.40
2012,05,15,00,50,10.40
2012,05,15,00,51,10.50
2012,05,15,00,52,10.50
2012,05,15,00,53,10.50
2012,05,15,00,54,10.50
2012,05,15,00,55,10.50
2012,05,15,00,56,10.40
2012,05,15,00,57,10.40
2012,05,15,00,58,10.40
2012,05,15,00,59,10.40
2012,05,15,01,00,10.40
2012,05,15,01,01,10.40
2012,05,15,01,02,10.40
2012,05,15,01,03,10.30
2012,05,15,01,04,10.30
2012,05,15,01,05,10.30
2012,05,15,01,06,10.30
2012,05,15,01,07,10.30
2012,05,15,01,08,10.30
2012,05,15,01,09,10.30
2012,05,15,01,10,10.40
2012,05,15,01,11,10.40
2012,05,15,01,12,10.30
2012,05,15,01,13,10.30
2012,05,15,01,14,10.40
2012,05,15,01,15,10.40
2012,05,15,01,16,10.40
2012,05,15,01,17,10.40
2012,05,15,01,18,10.40
2012,05,15,01,19,10.40
2012,05,15,01,20,10.40
2012,05,15,01,21,10.40
2012,05,15,01,22,10.40
2012,05,15,01,23,10.40
2012,05,15,01,24,10.40
2012,05,15,01,25,10.40
2012,05,15,01,26,10.40
2012,05,15,01,27,10.40
2012,05,15,01,28,10.40
2012,05,15,01,29,10.40
2012,05,15,01,30,10.30
2012,05,15,01,31,10.30
2012,05,15,01,32,10.30
2012,05,15,01,33,10.30
2012,05,15,01,34,10.30
2012,05,15,01,35,10.30
2012,05,15,01,36,10.30
2012,05,15,01,37,10.30
2012,05,15,01,38,10.20
2012,05,15,01,39,10.20
2012,05,15,01,40,10.20
2012,05,15,01,41,10.20
2012,05,15,01,42,10.20
2012,05,15,01,43,10.20
2012,05,15,01,44,10.10
2012,05,15,01,45,10.10
2012,05,15,01,46,10.10
2012,05,15,01,47,10.10
2012,05,15,01,48,10.10
2012,05,15,01,49,10.10
2012,05,15,01,50,10.10
2012,05,15,01,51,10.10
2012,05,15,01,52,10.10
2012,05,15,01,53,10.10
2012,05,15,01,54,10.00
2012,05,15,01,55,10.00
2012,05,15,01,56,10.00
2012,05,15,01,57,10.00
2012,05,15,01,58,10.10
2012,05,15,01,59,10.10
2012,05,15,02,00,10.10
2012,05,15,02,01,10.00
2012,05,15,02,02,10.10
2012,05,15,02,03,10.10
2012,05,15,02,04,10.10
2012,05,15,02,05,10.10
2012,05,15,02,06,10.10
2012,05,15,02,07,10.10
2012,05,15,02,08,10.10
2012,05,15,02,09,10.10
2012,05,15,02,10,10.10
2012,05,15,02,11,10.10
2012,05,15,02,12,10.10
2012,05,15,02,13,10.10
2012,05,15,02,14,10.10
2012,05,15,02,15,10.10
2012,05,15,02,16,10.10
2012,05,15,02,17,10.10
2012,05,15,02,18,10.10
2012,05,15,02,19,10.10
2012,05,15,02,20,10.00
2012,05,15,02,21,10.00
2012,05,15,02,22,10.00
2012,05,15,02,23,10.00
2012,05,15,02,24,10.00
2012,05,15,02,25,10.00
2012,05,15,02,26,10.00
2012,05,15,02,27,10.00
2012,05,15,02,28,10.00
2012,05,15,02,29,10.00
2012,05,15,02,30,10.00
2012,05,15,02,31,10.00
2012,05,15,02,32,10.00
2012,05,15,02,33,10.00
2012,05,15,02,34,10.00
2012,05,15,02,35,10.00
2012,05,15,02,36,10.00
2012,05,15,02,37,10.00
2012,05,15,02,38,10.00
2012,05,15,02,39,10.00
2012,05,15,02,40,10.00
2012,05,15,02,41,10.00
2012,05,15,02,42,10.00
2012,05,15,02,43,10.00
2012,05,15,02,44,10.00
2012,05,15,02,45,9.90
2012,05,15,02,46,9.90
2012,05,15,02,47,9.90
2012,05,15,02,48,9.90
2012,05,15,02,49,9.90
2012,05,15,02,50,9.90
2012,05,15,02,51,9.90
2012,05,15,02,52,9.90
2012,05,15,02,53,9.90
2012,05,15,02,54,9.90
2012,05,15,02,55,9.90
2012,05,15,02,56,9.90
2012,05,15,02,57,10.00
2012,05,15,02,58,10.00
2012,05,15,02,59,10.00
2012,05,15,03,00,10.00
2012,05,15,03,01,10.00
2012,05,15,03,02,10.00
2012,05,15,03,03,10.00
2012,05,15,03,04,10.00
2012,05,15,03,05,10.00
2012,05,15,03,06,10.00
2012,05,15,03,07,10.00
2012,05,15,03,08,10.00
2012,05,15,03,09,10.00
2012,05,15,03,10,10.00
2012,05,15,03,11,10.00
2012,05,15,03,12,10.00
2012,05,15,03,13,9.90
2012,05,15,03,14,9.90
2012,05,15,03,15,9.90
2012,05,15,03,16,9.90
2012,05,15,03,17,9.90
2012,05,15,03,18,9.90
2012,05,15,03,19,9.90
2012,05,15,03,20,9.90
2012,05,15,03,21,9.90
2012,05,15,03,22,9.90
2012,05,15,03,23,9.90
2012,05,15,03,24,9.90
2012,05,15,03,25,9.90
2012,05,15,03,26,9.90
2012,05,15,03,27,9.90
2012,05,15,03,28,9.90
2012,05,15,03,29,9.90
2012,05,15,03,30,9.90
2012,05,15,03,31,10.00
2012,05,15,03,32,10.00
2012,05,15,03,33,10.00
2012,05,15,03,34,10.10
2012,05,15,03,35,10.10
2012,05,15,03,36,10.10
2012,05,15,03,37,10.10
2012,05,15,03,38,10.10
2012,05,15,03,39,10.10
2012,05,15,03,40,10.10
2012,05,15,03,41,10.10
2012,05,15,03,42,10.10
2012,05,15,03,43,10.10
2012,05,15,03,44,10.10
2012,05,15,03,45,10.10
2012,05,15,03,46,10.10
2012,05,15,03,47,10.00
2012,05,15,03,48,10.00
2012,05,15,03,49,9.90
2012,05,15,03,50,9.90
2012,05,15,03,51,9.90
2012,05,15,03,52,9.80
2012,05,15,03,53,9.80
2012,05,15,03,54,9.80
2012,05,15,03,55,9.80
2012,05,15,03,56,9.80
2012,05,15,03,57,9.70
2012,05,15,03,58,9.70
2012,05,15,03,59,9.70
2012,05,15,04,00,9.60
2012,05,15,04,01,9.60
2012,05,15,04,02,9.60
2012,05,15,04,03,9.50
2012,05,15,04,04,9.50
2012,05,15,04,05,9.50
2012,05,15,04,06,9.50
2012,05,15,04,07,9.50
2012,05,15,04,08,9.40
2012,05,15,04,09,9.30
2012,05,15,04,10,9.20
2012,05,15,04,11,9.10
2012,05,15,04,12,9.10
2012,05,15,04,13,9.20
2012,05,15,04,14,9.20
2012,05,15,04,15,9.10
2012,05,15,04,16,9.10
2012,05,15,04,17,9.20
2012,05,15,04,18,9.20
2012,05,15,04,19,9.20
2012,05,15,04,20,9.30
2012,05,15,04,21,9.30
2012,05,15,04,22,9.30
2012,05,15,04,23,9.30
2012,05,15,04,24,9.30
2012,05,15,04,25,9.30
2012,05,15,04,26,9.30
2012,05,15,04,27,9.30
2012,05,15,04,28,9.30
2012,05,15,04,29,9.30
2012,05,15,04,30,9.30
2012,05,15,04,31,9.30
2012,05,15,04,32,9.30
2012,05,15,04,33,9.30
2012,05,15,04,34,9.20
2012,05,15,04,35,9.20
2012,05,15,04,36,9.20
2012,05,15,04,37,9.20
2012,05,15,04,38,9.20
2012,05,15,04,39,9.20
2012,05,15,04,40,9.20
2012,05,15,04,41,9.20
2012,05,15,04,42,9.20
2012,05,15,04,43,9.20
2012,05,15,04,44,9.20
2012,05,15,04,45,9.20
2012,05,15,04,46,9.20
2012,05,15,04,47,9.20
2012,05,15,04,48,9.20
2012,05,15,04,49,9.20
2012,05,15,04,50,9.20
2012,05,15,04,51,9.20
2012,05,15,04,52,9.10
2012,05,15,04,53,9.10
2012,05,15,04,54,9.10
2012,05,15,04,55,9.00
2012,05,15,04,56,9.00
2012,05,15,04,57,9.00
2012,05,15,04,58,9.00
2012,05,15,04,59,9.10
2012,05,15,05,00,9.10
2012,05,15,05,01,9.10
2012,05,15,05,02,9.10
2012,05,15,05,03,9.10
2012,05,15,05,04,9.10
2012,05,15,05,05,9.20
2012,05,15,05,06,9.20
2012,05,15,05,07,9.20
2012,05,15,05,08,9.20
2012,05,15,05,09,9.20
2012,05,15,05,10,9.20
2012,05,15,05,11,9.30
2012,05,15,05,12,9.30
2012,05,15,05,13,9.30
2012,05,15,05,14,9.30
2012,05,15,05,15,9.40
2012,05,15,05,16,9.40
2012,05,15,05,17,9.40
2012,05,15,05,18,9.40
2012,05,15,05,19,9.40
2012,05,15,05,20,9.40
2012,05,15,05,21,9.40
2012,05,15,05,22,9.40
2012,05,15,05,23,9.40
2012,05,15,05,24,9.40
2012,05,15,05,25,9.40
2012,05,15,05,26,9.40
2012,05,15,05,27,9.40
2012,05,15,05,28,9.40
2012,05,15,05,29,9.40
2012,05,15,05,30,9.40
2012,05,15,05,31,9.40
2012,05,15,05,32,9.40
2012,05,15,05,33,9.40
2012,05,15,05,34,9.40
2012,05,15,05,35,9.30
2012,05,15,05,36,9.30
2012,05,15,05,37,9.30
2012,05,15,05,38,9.30
2012,05,15,05,39,9.30
2012,05,15,05,40,9.30
2012,05,15,05,41,9.30
2012,05,15,05,42,9.30
2012,05,15,05,43,9.20
2012,05,15,05,44,9.20
2012,05,15,05,45,9.20
2012,05,15,05,46,9.20
2012,05,15,05,47,9.20
2012,05,15,05,48,9.20
2012,05,15,05,49,9.20
2012,05,15,05,50,9.20
2012,05,15,05,51,9.20
2012,05,15,05,52,9.20
2012,05,15,05,53,9.20
2012,05,15,05,54,9.20
2012,05,15,05,55,9.20
2012,05,15,05,56,9.30
2012,05,15,05,57,9.30
2012,05,15,05,58,9.30
2012,05,15,05,59,9.30
2012,05,15,06,00,9.40
2012,05,15,06,01,9.40
2012,05,15,06,02,9.30
2012,05,15,06,03,9.30
2012,05,15,06,04,9.30
2012,05,15,06,05,9.30
2012,05,15,06,06,9.30
2012,05,15,06,07,9.30
2012,05,15,06,08,9.30
2012,05,15,06,09,9.30
2012,05,15,06,10,9.30
2012,05,15,06,11,9.30
2012,05,15,06,12,9.30
2012,05,15,06,13,9.30
2012,05,15,06,14,9.30
2012,05,15,06,15,9.30
2012,05,15,06,16,9.40
2012,05,15,06,17,9.40
2012,05,15,06,18,9.40
2012,05,15,06,19,9.40
2012,05,15,06,20,9.40
2012,05,15,06,21,9.40
2012,05,15,06,22,9.40
2012,05,15,06,23,9.40
2012,05,15,06,24,9.40
2012,05,15,06,25,9.40
2012,05,15,06,26,9.40
2012,05,15,06,27,9.50
2012,05,15,06,28,9.50
2012,05,15,06,29,9.50
2012,05,15,06,30,9.50
2012,05,15,06,31,9.50
2012,05,15,06,32,9.50
2012,05,15,06,33,9.50
2012,05,15,06,34,9.60
2012,05,15,06,35,9.60
2012,05,15,06,36,9.60
2012,05,15,06,37,9.60
2012,05,15,06,38,9.60
2012,05,15,06,39,9.60
2012,05,15,06,40,9.60
2012,05,15,06,41,9.60
2012,05,15,06,42,9.60
2012,05,15,06,43,9.60
2012,05,15,06,44,9.60
2012,05,15,06,45,9.60
2012,05,15,06,46,9.60
2012,05,15,06,47,9.60
2012,05,15,06,48,9.70
2012,05,15,06,49,9.70
2012,05,15,06,50,9.80
2012,05,15,06,51,9.80
2012,05,15,06,52,9.80
2012,05,15,06,53,9.80
2012,05,15,06,54,9.90
2012,05,15,06,55,9.90
2012,05,15,06,56,9.90
2012,05,15,06,57,10.00
2012,05,15,06,58,10.00
2012,05,15,06,59,10.10
2012,05,15,07,00,10.10
2012,05,15,07,01,10.20
2012,05,15,07,02,10.20
2012,05,15,07,03,10.30
2012,05,15,07,04,10.30
2012,05,15,07,05,10.40
2012,05,15,07,06,10.40
2012,05,15,07,07,10.40
2012,05,15,07,08,10.40
2012,05,15,07,09,10.40
2012,05,15,07,10,10.50
2012,05,15,07,11,10.50
2012,05,15,07,12,10.50
2012,05,15,07,13,10.50
2012,05,15,07,14,10.50
2012,05,15,07,15,10.60
2012,05,15,07,16,10.60
2012,05,15,07,17,10.60
2012,05,15,07,18,10.70
2012,05,15,07,19,10.70
2012,05,15,07,20,10.70
2012,05,15,07,21,10.80
2012,05,15,07,22,10.80
2012,05,15,07,23,10.80
2012,05,15,07,24,10.90
2012,05,15,07,25,10.90
2012,05,15,07,26,11.00
2012,05,15,07,27,11.00
2012,05,15,07,28,11.10
2012,05,15,07,29,11.20
2012,05,15,07,30,11.20
2012,05,15,07,31,11.30
2012,05,15,07,32,11.30
2012,05,15,07,33,11.30
2012,05,15,07,34,11.40
2012,05,15,07,35,11.60
2012,05,15,07,36,11.60
2012,05,15,07,37,11.70
2012,05,15,07,38,11.80
2012,05,15,07,39,11.80
2012,05,15,07,40,11.90
2012,05,15,07,41,12.00
2012,05,15,07,42,12.00
2012,05,15,07,43,12.10
2012,05,15,07,44,12.20
2012,05,15,07,45,12.20
2012,05,15,07,46,12.30
2012,05,15,07,47,12.30
2012,05,15,07,48,12.30
2012,05,15,07,49,12.40
2012,05,15,07,50,12.40
2012,05,15,07,51,12.40
2012,05,15,07,52,12.30
2012,05,15,07,53,12.30
2012,05,15,07,54,12.30
2012,05,15,07,55,12.30
2012,05,15,07,56,12.30
2012,05,15,07,57,12.30
2012,05,15,07,58,12.30
2012,05,15,07,59,12.30
2012,05,15,08,00,12.40
2012,05,15,08,01,12.40
2012,05,15,08,02,12.40
2012,05,15,08,03,12.50
2012,05,15,08,04,12.50
2012,05,15,08,05,12.60
2012,05,15,08,06,12.60
2012,05,15,08,07,12.60
2012,05,15,08,08,12.60
2012,05,15,08,09,12.60
2012,05,15,08,10,12.70
2012,05,15,08,11,12.70
2012,05,15,08,12,12.70
2012,05,15,08,13,12.70
2012,05,15,08,14,12.80
2012,05,15,08,15,12.80
2012,05,15,08,16,12.80
2012,05,15,08,17,12.90
2012,05,15,08,18,12.90
2012,05,15,08,19,12.90
2012,05,15,08,20,12.90
2012,05,15,08,21,12.90
2012,05,15,08,22,12.90
2012,05,15,08,23,12.80
2012,05,15,08,24,12.80
2012,05,15,08,25,12.70
2012,05,15,08,26,12.70
2012,05,15,08,27,12.70
2012,05,15,08,28,12.80
2012,05,15,08,29,12.70
2012,05,15,08,30,12.80
2012,05,15,08,31,12.80
2012,05,15,08,32,12.80
2012,05,15,08,33,12.80
2012,05,15,08,34,12.80
2012,05,15,08,35,12.90
2012,05,15,08,36,12.90
2012,05,15,08,37,12.90
2012,05,15,08,38,12.90
2012,05,15,08,39,13.00
2012,05,15,08,40,13.10
2012,05,15,08,41,13.10
2012,05,15,08,42,13.10
2012,05,15,08,43,13.10
2012,05,15,08,44,13.10
2012,05,15,08,45,13.20
2012,05,15,08,46,13.20
2012,05,15,08,47,13.20
2012,05,15,08,48,13.20
2012,05,15,08,49,13.20
2012,05,15,08,50,13.20
2012,05,15,08,51,13.20
2012,05,15,08,52,13.20
2012,05,15,08,53,13.20
2012,05,15,08,54,13.20
2012,05,15,08,55,13.20
2012,05,15,08,56,13.20
2012,05,15,08,57,13.20
2012,05,15,08,58,13.20
2012,05,15,08,59,13.20
2012,05,15,09,00,13.20
2012,05,15,09,01,13.20
2012,05,15,09,02,13.30
2012,05,15,09,03,13.30
2012,05,15,09,04,13.30
2012,05,15,09,05,13.40
2012,05,15,09,06,13.40
2012,05,15,09,07,13.40
2012,05,15,09,08,13.50
2012,05,15,09,09,13.60
2012,05,15,09,10,13.70
2012,05,15,09,11,13.70
2012,05,15,09,12,13.80
2012,05,15,09,13,13.80
2012,05,15,09,14,13.80
2012,05,15,09,15,13.80
2012,05,15,09,16,13.80
2012,05,15,09,17,13.80
2012,05,15,09,18,13.80
2012,05,15,09,19,13.80
2012,05,15,09,20,13.80
2012,05,15,09,21,13.70
2012,05,15,09,22,13.70
2012,05,15,09,23,13.70
2012,05,15,09,24,13.70
2012,05,15,09,25,13.70
2012,05,15,09,26,13.70
2012,05,15,09,27,13.70
2012,05,15,09,28,13.70
2012,05,15,09,29,13.70
2012,05,15,09,30,13.70
2012,05,15,09,31,13.70
2012,05,15,09,32,13.70
2012,05,15,09,33,13.70
2012,05,15,09,34,13.80
2012,05,15,09,35,13.80
2012,05,15,09,36,13.90
2012,05,15,09,37,14.00
2012,05,15,09,38,14.00
2012,05,15,09,39,14.10
2012,05,15,09,40,14.10
2012,05,15,09,41,14.10
2012,05,15,09,42,14.10
2012,05,15,09,43,14.10
2012,05,15,09,44,14.10
2012,05,15,09,45,14.20
2012,05,15,09,46,14.20
2012,05,15,09,47,14.20
2012,05,15,09,48,14.20
2012,05,15,09,49,14.30
2012,05,15,09,50,14.30
2012,05,15,09,51,14.30
2012,05,15,09,52,14.40
2012,05,15,09,53,14.50
2012,05,15,09,54,14.60
2012,05,15,09,55,14.70
2012,05,15,09,56,14.80
2012,05,15,09,57,14.90
2012,05,15,09,58,15.00
2012,05,15,09,59,15.10
2012,05,15,10,00,15.10
2012,05,15,10,01,15.20
2012,05,15,10,02,15.10
2012,05,15,10,03,15.10
2012,05,15,10,04,15.10
2012,05,15,10,05,15.00
2012,05,15,10,06,14.90
2012,05,15,10,07,14.90
2012,05,15,10,08,14.90
2012,05,15,10,09,14.80
2012,05,15,10,10,14.80
2012,05,15,10,11,14.80
2012,05,15,10,12,14.70
2012,05,15,10,13,14.70
2012,05,15,10,14,14.60
2012,05,15,10,15,14.50
2012,05,15,10,16,14.40
2012,05,15,10,17,14.30
2012,05,15,10,18,14.20
2012,05,15,10,19,14.20
2012,05,15,10,20,14.10
2012,05,15,10,21,14.10
2012,05,15,10,22,14.10
2012,05,15,10,23,14.10
2012,05,15,10,24,14.10
2012,05,15,10,25,14.10
2012,05,15,10,26,14.20
2012,05,15,10,27,14.10
2012,05,15,10,28,14.10
2012,05,15,10,29,14.20
2012,05,15,10,30,14.20
2012,05,15,10,31,14.20
2012,05,15,10,32,14.30
2012,05,15,10,33,14.30
2012,05,15,10,34,14.30
2012,05,15,10,35,14.40
2012,05,15,10,36,14.40
2012,05,15,10,37,14.40
2012,05,15,10,38,14.40
2012,05,15,10,39,14.50
2012,05,15,10,40,14.50
2012,05,15,10,41,14.60
2012,05,15,10,42,14.60
2012,05,15,10,43,14.60
2012,05,15,10,44,14.60
2012,05,15,10,45,14.70
2012,05,15,10,46,14.70
2012,05,15,10,47,14.70
2012,05,15,10,48,14.80
2012,05,15,10,49,14.80
2012,05,15,10,50,14.80
2012,05,15,10,51,14.80
2012,05,15,10,52,14.80
2012,05,15,10,53,14.80
2012,05,15,10,54,14.80
2012,05,15,10,55,14.80
2012,05,15,10,56,14.90
2012,05,15,10,57,14.90
2012,05,15,10,58,14.90
2012,05,15,10,59,14.90
2012,05,15,11,00,14.90
2012,05,15,11,01,14.90
2012,05,15,11,02,14.80
2012,05,15,11,03,14.80
2012,05,15,11,04,14.80
2012,05,15,11,05,14.80
2012,05,15,11,06,14.80
2012,05,15,11,07,14.90
2012,05,15,11,08,14.90
2012,05,15,11,09,15.00
2012,05,15,11,10,15.10
2012,05,15,11,11,15.10
2012,05,15,11,12,15.10
2012,05,15,11,13,15.10
2012,05,15,11,14,15.10
2012,05,15,11,15,15.10
2012,05,15,11,16,15.10
2012,05,15,11,17,15.10
2012,05,15,11,18,15.10
2012,05,15,11,19,15.00
2012,05,15,11,20,15.00
2012,05,15,11,21,15.00
2012,05,15,11,22,14.90
2012,05,15,11,23,14.90
2012,05,15,11,24,14.80
2012,05,15,11,25,14.60
2012,05,15,11,26,14.60
2012,05,15,11,27,14.60
2012,05,15,11,28,14.70
2012,05,15,11,29,14.70
2012,05,15,11,30,14.70
2012,05,15,11,31,14.70
2012,05,15,11,32,14.60
2012,05,15,11,33,14.60
2012,05,15,11,34,14.50
2012,05,15,11,35,14.40
2012,05,15,11,36,14.30
2012,05,15,11,37,14.20
2012,05,15,11,38,14.20
2012,05,15,11,39,14.20
2012,05,15,11,40,14.20
2012,05,15,11,41,14.30
2012,05,15,11,42,14.30
2012,05,15,11,43,14.30
2012,05,15,11,44,14.20
2012,05,15,11,45,14.10
2012,05,15,11,46,14.10
2012,05,15,11,47,14.10
2012,05,15,11,48,14.10
2012,05,15,11,49,14.10
2012,05,15,11,50,14.20
2012,05,15,11,51,14.20
2012,05,15,11,52,14.20
2012,05,15,11,53,14.30
2012,05,15,11,54,14.30
2012,05,15,11,55,14.30
2012,05,15,11,56,14.30
2012,05,15,11,57,14.30
2012,05,15,11,58,14.40
2012,05,15,11,59,14.40
2012,05,15,12,00,14.40
2012,05,15,12,01,14.40
2012,05,15,12,02,14.40
2012,05,15,12,03,14.40
2012,05,15,12,04,14.40
2012,05,15,12,05,14.40
2012,05,15,12,06,14.50
2012,05,15,12,07,14.60
2012,05,15,12,08,14.70
2012,05,15,12,09,14.80
2012,05,15,12,10,14.80
2012,05,15,12,11,14.90
2012,05,15,12,12,15.00
2012,05,15,12,13,14.90
2012,05,15,12,14,14.90
2012,05,15,12,15,14.90
2012,05,15,12,16,14.90
2012,05,15,12,17,14.90
2012,05,15,12,18,14.90
2012,05,15,12,19,14.90
2012,05,15,12,20,14.90
2012,05,15,12,21,15.00
2012,05,15,12,22,15.00
2012,05,15,12,23,14.90
2012,05,15,12,24,14.90
2012,05,15,12,25,14.80
2012,05,15,12,26,14.80
2012,05,15,12,27,14.80
2012,05,15,12,28,14.70
2012,05,15,12,29,14.70
2012,05,15,12,30,14.70
2012,05,15,12,31,14.70
2012,05,15,12,32,14.70
2012,05,15,12,33,14.80
2012,05,15,12,34,14.80
2012,05,15,12,35,14.90
2012,05,15,12,36,14.90
2012,05,15,12,37,15.00
2012,05,15,12,38,15.00
2012,05,15,12,39,15.00
2012,05,15,12,40,15.10
2012,05,15,12,41,15.00
2012,05,15,12,42,15.00
2012,05,15,12,43,15.00
2012,05,15,12,44,15.00
2012,05,15,12,45,15.00
2012,05,15,12,46,14.90
2012,05,15,12,47,14.90
2012,05,15,12,48,14.90
2012,05,15,12,49,14.90
2012,05,15,12,50,14.90
2012,05,15,12,51,15.00
2012,05,15,12,52,14.90
2012,05,15,12,53,14.90
2012,05,15,12,54,15.00
2012,05,15,12,55,15.10
2012,05,15,12,56,15.10
2012,05,15,12,57,15.20
2012,05,15,12,58,15.30
2012,05,15,12,59,15.30
2012,05,15,13,00,15.30
2012,05,15,13,01,15.30
2012,05,15,13,02,15.40
2012,05,15,13,03,15.40
2012,05,15,13,04,15.40
2012,05,15,13,05,15.30
2012,05,15,13,06,15.30
2012,05,15,13,07,15.30
2012,05,15,13,08,15.30
2012,05,15,13,09,15.30
2012,05,15,13,10,15.30
2012,05,15,13,11,15.30
2012,05,15,13,12,15.30
2012,05,15,13,13,15.30
2012,05,15,13,14,15.30
2012,05,15,13,15,15.30
2012,05,15,13,16,15.20
2012,05,15,13,17,15.20
2012,05,15,13,18,15.20
2012,05,15,13,19,15.20
2012,05,15,13,20,15.10
2012,05,15,13,21,15.20
2012,05,15,13,22,15.20
2012,05,15,13,23,15.30
2012,05,15,13,24,15.30
2012,05,15,13,25,15.30
2012,05,15,13,26,15.30
2012,05,15,13,27,15.30
2012,05,15,13,28,15.30
2012,05,15,13,29,15.30
2012,05,15,13,30,15.30
2012,05,15,13,31,15.40
2012,05,15,13,32,15.50
2012,05,15,13,33,15.60
2012,05,15,13,34,15.60
2012,05,15,13,35,15.70
2012,05,15,13,36,15.70
2012,05,15,13,37,15.60
2012,05,15,13,38,15.60
2012,05,15,13,39,15.50
2012,05,15,13,40,15.50
2012,05,15,13,41,15.50
2012,05,15,13,42,15.50
2012,05,15,13,43,15.50
2012,05,15,13,44,15.50
2012,05,15,13,45,15.60
2012,05,15,13,46,15.60
2012,05,15,13,47,15.60
2012,05,15,13,48,15.60
2012,05,15,13,49,15.60
2012,05,15,13,50,15.50
2012,05,15,13,51,15.40
2012,05,15,13,52,15.30
2012,05,15,13,53,15.40
2012,05,15,13,54,15.40
2012,05,15,13,55,15.40
2012,05,15,13,56,15.40
2012,05,15,13,57,15.40
2012,05,15,13,58,15.40
2012,05,15,13,59,15.40
2012,05,15,14,00,15.30
2012,05,15,14,01,15.20
2012,05,15,14,02,15.20
2012,05,15,14,03,15.20
2012,05,15,14,04,15.20
2012,05,15,14,05,15.10
2012,05,15,14,06,15.10
2012,05,15,14,07,15.10
2012,05,15,14,08,15.10
2012,05,15,14,09,15.10
2012,05,15,14,10,15.10
2012,05,15,14,11,15.10
2012,05,15,14,12,15.10
2012,05,15,14,13,15.10
2012,05,15,14,14,15.20
2012,05,15,14,15,15.20
2012,05,15,14,16,15.20
2012,05,15,14,17,15.10
2012,05,15,14,18,15.10
2012,05,15,14,19,15.00
2012,05,15,14,20,14.90
2012,05,15,14,21,14.90
2012,05,15,14,22,14.90
2012,05,15,14,23,14.90
2012,05,15,14,24,14.90
2012,05,15,14,25,14.90
2012,05,15,14,26,14.90
2012,05,15,14,27,14.90
2012,05,15,14,28,15.00
2012,05,15,14,29,15.00
2012,05,15,14,30,15.10
2012,05,15,14,31,15.20
2012,05,15,14,32,15.20
2012,05,15,14,33,15.20
2012,05,15,14,34,15.20
2012,05,15,14,35,15.20
2012,05,15,14,36,15.20
2012,05,15,14,37,15.30
2012,05,15,14,38,15.30
2012,05,15,14,39,15.30
2012,05,15,14,40,15.40
2012,05,15,14,41,15.40
2012,05,15,14,42,15.40
2012,05,15,14,43,15.40
2012,05,15,14,44,15.50
2012,05,15,14,45,15.50
2012,05,15,14,46,15.40
2012,05,15,14,47,15.30
2012,05,15,14,48,15.30
2012,05,15,14,49,15.30
2012,05,15,14,50,15.30
2012,05,15,14,51,15.40
2012,05,15,14,52,15.40
2012,05,15,14,53,15.40
2012,05,15,14,54,15.40
2012,05,15,14,55,15.30
2012,05,15,14,56,15.30
2012,05,15,14,57,15.20
2012,05,15,14,58,15.10
2012,05,15,14,59,15.00
2012,05,15,15,00,14.90
2012,05,15,15,01,14.90
2012,05,15,15,02,14.80
2012,05,15,15,03,14.70
2012,05,15,15,04,14.60
2012,05,15,15,05,14.60
2012,05,15,15,06,14.60
2012,05,15,15,07,14.60
2012,05,15,15,08,14.70
2012,05,15,15,09,14.70
2012,05,15,15,10,14.70
2012,05,15,15,11,14.70
2012,05,15,15,12,14.70
2012,05,15,15,13,14.80
2012,05,15,15,14,14.90
2012,05,15,15,15,14.90
2012,05,15,15,16,14.90
2012,05,15,15,17,14.90
2012,05,15,15,18,14.80
2012,05,15,15,19,14.80
2012,05,15,15,20,14.70
2012,05,15,15,21,14.70
2012,05,15,15,22,14.70
2012,05,15,15,23,14.70
2012,05,15,15,24,14.60
2012,05,15,15,25,14.60
2012,05,15,15,26,14.60
2012,05,15,15,27,14.70
2012,05,15,15,28,14.70
2012,05,15,15,29,14.60
2012,05,15,15,30,14.60
2012,05,15,15,31,14.60
2012,05,15,15,32,14.60
2012,05,15,15,33,14.60
2012,05,15,15,34,14.60
2012,05,15,15,35,14.50
2012,05,15,15,36,14.50
2012,05,15,15,37,14.40
2012,05,15,15,38,14.50
2012,05,15,15,39,14.50
2012,05,15,15,40,14.50
2012,05,15,15,41,14.50
2012,05,15,15,42,14.50
2012,05,15,15,43,14.50
2012,05,15,15,44,14.60
2012,05,15,15,45,14.60
2012,05,15,15,46,14.60
2012,05,15,15,47,14.60
2012,05,15,15,48,14.60
2012,05,15,15,49,14.60
2012,05,15,15,50,14.70
2012,05,15,15,51,14.70
2012,05,15,15,52,14.70
2012,05,15,15,53,14.70
2012,05,15,15,54,14.70
2012,05,15,15,55,14.70
2012,05,15,15,56,14.80
2012,05,15,15,57,14.80
2012,05,15,15,58,14.80
2012,05,15,15,59,14.70
2012,05,15,16,00,14.70
2012,05,15,16,01,14.70
2012,05,15,16,02,14.60
2012,05,15,16,03,14.70
2012,05,15,16,04,14.70
2012,05,15,16,05,14.70
2012,05,15,16,06,14.70
2012,05,15,16,07,14.70
2012,05,15,16,08,14.70
2012,05,15,16,09,14.70
2012,05,15,16,10,14.70
2012,05,15,16,11,14.60
2012,05,15,16,12,14.50
2012,05,15,16,13,14.60
2012,05,15,16,14,14.60
2012,05,15,16,15,14.70
2012,05,15,16,16,14.80
2012,05,15,16,17,14.90
2012,05,15,16,18,14.90
2012,05,15,16,19,14.90
2012,05,15,16,20,14.90
2012,05,15,16,21,14.90
2012,05,15,16,22,14.90
2012,05,15,16,23,14.90
2012,05,15,16,24,14.90
2012,05,15,16,25,14.90
2012,05,15,16,26,14.80
2012,05,15,16,27,14.80
2012,05,15,16,28,14.80
2012,05,15,16,29,14.80
2012,05,15,16,30,14.80
2012,05,15,16,31,14.80
2012,05,15,16,32,14.80
2012,05,15,16,33,14.90
2012,05,15,16,34,14.90
2012,05,15,16,35,14.90
2012,05,15,16,36,14.80
2012,05,15,16,37,14.80
2012,05,15,16,38,14.80
2012,05,15,16,39,14.80
2012,05,15,16,40,14.80
2012,05,15,16,41,14.80
2012,05,15,16,42,14.80
2012,05,15,16,43,14.90
2012,05,15,16,44,14.90
2012,05,15,16,45,14.90
2012,05,15,16,46,14.90
2012,05,15,16,47,14.90
2012,05,15,16,48,14.90
2012,05,15,16,49,14.90
2012,05,15,16,50,14.90
2012,05,15,16,51,14.90
2012,05,15,16,52,14.90
2012,05,15,16,53,14.90
2012,05,15,16,54,14.90
2012,05,15,16,55,15.00
2012,05,15,16,56,15.00
2012,05,15,16,57,15.10
2012,05,15,16,58,15.10
2012,05,15,16,59,15.20
2012,05,15,17,00,15.10
2012,05,15,17,01,15.10
2012,05,15,17,02,15.00
2012,05,15,17,03,15.00
2012,05,15,17,04,15.00
2012,05,15,17,05,14.90
2012,05,15,17,06,14.80
2012,05,15,17,07,14.80
2012,05,15,17,08,14.80
2012,05,15,17,09,14.70
2012,05,15,17,10,14.70
2012,05,15,17,11,14.60
2012,05,15,17,12,14.60
2012,05,15,17,13,14.50
2012,05,15,17,14,14.50
2012,05,15,17,15,14.40
2012,05,15,17,16,14.40
2012,05,15,17,17,14.30
2012,05,15,17,18,14.20
2012,05,15,17,19,14.20
2012,05,15,17,20,14.20
2012,05,15,17,21,14.20
2012,05,15,17,22,14.20
2012,05,15,17,23,14.10
2012,05,15,17,24,14.00
2012,05,15,17,25,13.90
2012,05,15,17,26,13.70
2012,05,15,17,27,13.50
2012,05,15,17,28,13.40